DLH32N EDDS-EDDN

Flight info

Callsign DLH32N
Flight time N/A
Altitude 19000
Route DKB9B/25 DKB N869 LETKU LETKU1V
Aircraft A20N/M-SDE2E3FGHIRWXY/LB1

Departure

Time 2026-05-05 16:57
Airport Stuttgart Airport (EDDS)

Arrival

Time N/A
Airport Nuremberg Airport (EDDN)
Time Latitude Longitude Altitude Speed Heading
2026-05-05 16:33 48.69093 9.20104 1295 ft 0 kts 345°
2026-05-05 16:44 48.69093 9.20105 1295 ft 2 kts 345°
2026-05-05 16:44 48.69073 9.20113 1294 ft 3 kts 344°
2026-05-05 16:45 48.69052 9.20122 1293 ft 3 kts 344°
2026-05-05 16:45 48.69031 9.20131 1291 ft 3 kts 346°
2026-05-05 16:45 48.69011 9.20130 1289 ft 2 kts 33°
2026-05-05 16:45 48.69001 9.20113 1289 ft 2 kts 75°
2026-05-05 16:46 48.69000 9.20109 1289 ft 0 kts 75°
2026-05-05 16:51 48.69001 9.20114 1289 ft 3 kts 74°
2026-05-05 16:51 48.69014 9.20182 1287 ft 11 kts 75°
2026-05-05 16:51 48.69050 9.20367 1284 ft 25 kts 72°
2026-05-05 16:51 48.69000 9.20561 1273 ft 24 kts 135°
2026-05-05 16:52 48.68979 9.20774 1273 ft 24 kts 76°
2026-05-05 16:52 48.69032 9.21054 1263 ft 32 kts 73°
2026-05-05 16:52 48.69084 9.21335 1260 ft 30 kts 74°
2026-05-05 16:52 48.69147 9.21670 1250 ft 37 kts 73°
2026-05-05 16:53 48.69213 9.22005 1244 ft 23 kts 75°
2026-05-05 16:53 48.69260 9.22268 1232 ft 30 kts 73°
2026-05-05 16:53 48.69326 9.22608 1226 ft 37 kts 73°
2026-05-05 16:53 48.69368 9.22833 1225 ft 21 kts 75°
2026-05-05 16:54 48.69417 9.23091 1221 ft 29 kts 74°
2026-05-05 16:54 48.69479 9.23406 1210 ft 27 kts 74°
2026-05-05 16:54 48.69524 9.23651 1205 ft 28 kts 76°
2026-05-05 16:54 48.69586 9.23973 1199 ft 31 kts 73°
2026-05-05 16:55 48.69563 9.24274 1191 ft 28 kts 125°
2026-05-05 16:55 48.69468 9.24327 1188 ft 0 kts 169°
2026-05-05 16:55 48.69444 9.24333 1188 ft 9 kts 169°
2026-05-05 16:56 48.69398 9.24323 1189 ft 10 kts 221°
2026-05-05 16:56 48.69368 9.24205 1190 ft 13 kts 253°
2026-05-05 16:56 48.69305 9.23869 1198 ft 67 kts 254°
2026-05-05 16:56 48.69114 9.22868 1223 ft 127 kts 253°
2026-05-05 16:57 48.68849 9.21407 1519 ft 146 kts 255°
2026-05-05 16:57 48.68598 9.19957 2223 ft 141 kts 256°
2026-05-05 16:57 48.68359 9.18479 2830 ft 147 kts 257°
2026-05-05 16:57 48.68017 9.17017 3533 ft 149 kts 243°
2026-05-05 16:58 48.67628 9.15552 4287 ft 152 kts 253°
2026-05-05 16:58 48.67336 9.13987 5092 ft 156 kts 255°
2026-05-05 16:58 48.67041 9.12345 5819 ft 174 kts 254°
2026-05-05 16:58 48.66685 9.10460 6611 ft 192 kts 253°
2026-05-05 16:59 48.66287 9.08477 7525 ft 211 kts 252°
2026-05-05 16:59 48.65805 9.06268 8413 ft 231 kts 251°
2026-05-05 16:59 48.65248 9.03901 9398 ft 245 kts 250°
2026-05-05 16:59 48.64629 9.01441 10437 ft 254 kts 249°
2026-05-05 17:00 48.63956 8.98932 11503 ft 261 kts 247°
2026-05-05 17:00 48.63232 8.96385 12595 ft 263 kts 247°
2026-05-05 17:00 48.62858 8.93774 14001 ft 247 kts 274°
2026-05-05 17:00 48.63331 8.91400 15375 ft 230 kts 304°
2026-05-05 17:01 48.64460 8.89834 16500 ft 220 kts 334°
2026-05-05 17:01 48.65992 8.89285 16948 ft 241 kts
2026-05-05 17:01 48.67665 8.90002 17148 ft 267 kts 35°
2026-05-05 17:01 48.69035 8.91868 18066 ft 267 kts 41°
2026-05-05 17:02 48.70593 8.93523 18625 ft 283 kts 32°
2026-05-05 17:02 48.72222 8.95440 18886 ft 311 kts 43°
2026-05-05 17:02 48.73775 8.97956 19000 ft 343 kts 51°
2026-05-05 17:02 48.75239 9.00973 19002 ft 376 kts 53°
2026-05-05 17:03 48.76995 9.04138 19003 ft 407 kts 47°
2026-05-05 17:03 48.78871 9.07561 19003 ft 437 kts 53°
2026-05-05 17:03 48.80730 9.11392 19002 ft 463 kts 54°
2026-05-05 17:03 48.82667 9.15463 19011 ft 487 kts 54°
2026-05-05 17:04 48.84595 9.19567 19710 ft 474 kts 54°
2026-05-05 17:04 48.86496 9.23636 20419 ft 471 kts 54°
2026-05-05 17:04 48.88347 9.27623 20667 ft 451 kts 55°
2026-05-05 17:04 48.90093 9.31459 20502 ft 434 kts 57°
2026-05-05 17:05 48.91550 9.35372 20315 ft 416 kts 64°
2026-05-05 17:05 48.92659 9.39287 20135 ft 399 kts 69°
2026-05-05 17:05 48.93647 9.43144 19738 ft 388 kts 68°
2026-05-05 17:05 48.94638 9.46948 19250 ft 382 kts 68°
2026-05-05 17:06 48.95621 9.50710 19053 ft 384 kts 68°
2026-05-05 17:06 48.96608 9.54501 19002 ft 386 kts 68°
2026-05-05 17:06 48.97594 9.58301 19000 ft 385 kts 68°
2026-05-05 17:06 48.98573 9.62092 19000 ft 386 kts 68°
2026-05-05 17:07 48.99560 9.65917 19000 ft 386 kts 68°
2026-05-05 17:07 49.00538 9.69718 19000 ft 386 kts 69°
2026-05-05 17:07 49.01516 9.73529 19000 ft 386 kts 69°
2026-05-05 17:07 49.02491 9.77331 19001 ft 385 kts 69°
2026-05-05 17:08 49.03466 9.81141 19000 ft 386 kts 69°
2026-05-05 17:08 49.04429 9.84908 19000 ft 386 kts 69°
2026-05-05 17:08 49.05404 9.88732 19001 ft 386 kts 69°
2026-05-05 17:08 49.06374 9.92540 19001 ft 386 kts 69°
2026-05-05 17:09 49.07346 9.96363 18999 ft 386 kts 69°
2026-05-05 17:09 49.08317 10.00190 19000 ft 386 kts 69°
2026-05-05 17:09 49.09285 10.04011 19001 ft 386 kts 69°
2026-05-05 17:09 49.10251 10.07832 19000 ft 386 kts 69°
2026-05-05 17:10 49.11217 10.11658 18999 ft 386 kts 69°
2026-05-05 17:10 49.12169 10.15437 19002 ft 386 kts 69°
2026-05-05 17:10 49.13135 10.19263 18999 ft 386 kts 68°
2026-05-05 17:10 49.14332 10.22927 19000 ft 386 kts 58°
2026-05-05 17:11 49.15900 10.26251 18999 ft 386 kts 49°
2026-05-05 17:11 49.17758 10.29215 19000 ft 386 kts 45°
2026-05-05 17:11 49.19649 10.32124 19000 ft 385 kts 45°
2026-05-05 17:11 49.21534 10.35048 19000 ft 386 kts 45°
2026-05-05 17:12 49.23430 10.37999 19000 ft 392 kts 45°
2026-05-05 17:12 49.25329 10.40936 18999 ft 385 kts 45°
2026-05-05 17:12 49.27202 10.43797 19000 ft 385 kts 44°
2026-05-05 17:12 49.29104 10.46692 19000 ft 386 kts 44°
2026-05-05 17:13 49.31007 10.49596 19000 ft 386 kts 45°
2026-05-05 17:13 49.32904 10.52495 19000 ft 385 kts 45°
2026-05-05 17:13 49.34800 10.55401 19000 ft 386 kts 45°
2026-05-05 17:13 49.36694 10.58320 19000 ft 385 kts 45°
2026-05-05 17:14 49.38576 10.61244 19000 ft 385 kts 45°
2026-05-05 17:14 49.40457 10.64173 19000 ft 385 kts 45°
2026-05-05 17:14 49.42073 10.67437 19000 ft 385 kts 62°
2026-05-05 17:14 49.42979 10.71309 19000 ft 386 kts 79°
2026-05-05 17:15 49.43077 10.75417 19002 ft 386 kts 96°
2026-05-05 17:15 49.42700 10.79463 19000 ft 386 kts 99°
2026-05-05 17:15 49.42246 10.83519 19000 ft 386 kts 100°
2026-05-05 17:15 49.41796 10.87582 19001 ft 385 kts 99°
2026-05-05 17:16 49.41367 10.91642 18998 ft 385 kts 99°
2026-05-05 17:16 49.40958 10.95689 18846 ft 383 kts 98°
2026-05-05 17:16 49.40559 10.99722 18439 ft 381 kts 98°
2026-05-05 17:16 49.40165 11.03736 17912 ft 378 kts 98°
2026-05-05 17:17 49.39774 11.07714 17340 ft 375 kts 98°
2026-05-05 17:17 49.39386 11.11659 16772 ft 372 kts 98°
2026-05-05 17:17 49.38999 11.15573 16206 ft 369 kts 98°
2026-05-05 17:17 49.38613 11.19453 15648 ft 366 kts 98°
2026-05-05 17:18 49.38228 11.23306 15099 ft 363 kts 98°
2026-05-05 17:18 49.37846 11.27123 14544 ft 360 kts 99°
2026-05-05 17:18 49.37465 11.30905 13996 ft 358 kts 99°
2026-05-05 17:18 49.37086 11.34659 13449 ft 355 kts 99°
2026-05-05 17:19 49.36709 11.38385 12915 ft 352 kts 99°
2026-05-05 17:19 49.36333 11.42083 12373 ft 349 kts 99°
2026-05-05 17:19 49.35963 11.45707 11856 ft 346 kts 99°
2026-05-05 17:19 49.35591 11.49345 11291 ft 343 kts 99°
2026-05-05 17:20 49.35241 11.52942 10524 ft 339 kts 94°
2026-05-05 17:20 49.35503 11.56463 10019 ft 326 kts 70°
2026-05-05 17:20 49.36602 11.59357 9816 ft 305 kts 46°
2026-05-05 17:20 49.38258 11.61201 9500 ft 289 kts 23°
2026-05-05 17:21 49.40185 11.61957 8922 ft 286 kts
2026-05-05 17:21 49.42140 11.61705 8306 ft 282 kts 340°
2026-05-05 17:21 49.43800 11.60164 7703 ft 279 kts 314°
2026-05-05 17:22 49.45171 11.54782 6529 ft 274 kts 278°
2026-05-05 17:22 49.45445 11.51921 6120 ft 264 kts 278°
2026-05-05 17:22 49.45705 11.49260 5936 ft 245 kts 278°
2026-05-05 17:22 49.45959 11.46718 5565 ft 237 kts 278°
2026-05-05 17:23 49.46212 11.44221 5072 ft 236 kts 278°
2026-05-05 17:23 49.46467 11.41736 4587 ft 235 kts 278°
2026-05-05 17:23 49.46718 11.39268 4133 ft 232 kts 278°
2026-05-05 17:23 49.46966 11.36825 3668 ft 231 kts 278°
2026-05-05 17:24 49.47211 11.34405 3317 ft 224 kts 278°
2026-05-05 17:24 49.47444 11.32113 3200 ft 207 kts 278°
2026-05-05 17:24 49.47653 11.30053 3168 ft 190 kts 279°
2026-05-05 17:24 49.47873 11.28039 2928 ft 191 kts 279°
2026-05-05 17:25 49.48068 11.26085 2765 ft 178 kts 278°
2026-05-05 17:25 49.48189 11.24868 2708 ft 168 kts 278°
2026-05-05 17:25 49.48409 11.22630 2483 ft 152 kts 278°
2026-05-05 17:25 49.48564 11.20967 2181 ft 159 kts 278°
2026-05-05 17:26 49.48736 11.19316 1937 ft 155 kts 280°
2026-05-05 17:26 49.48928 11.17673 1773 ft 157 kts 279°